CDT,Max TemperatureF,Mean TemperatureF,Min TemperatureF,Max Dew PointF,MeanDew PointF,Min DewpointF,Max Humidity, Mean Humidity, Min Humidity, Max Sea Level PressureIn, Mean Sea Level PressureIn, Min Sea Level PressureIn, Max VisibilityMiles, Mean VisibilityMiles, Min VisibilityMiles, Max Wind SpeedMPH, Mean Wind SpeedMPH, Max Gust SpeedMPH,PrecipitationIn, CloudCover, Events, WindDirDegrees
2013-3-1,55,47,39,43,35,30,87,61,44,30.16,30.09,30.02,10,8,5,17,4,25,0.00,0,,307
2013-3-2,50,42,35,32,28,23,81,59,43,30.21,30.16,30.10,10,9,5,16,9,24,0.00,4,,328
2013-3-3,53,44,35,36,27,21,93,58,30,30.24,30.19,30.14,10,9,4,14,8,21,0.00,1,,312
2013-3-4,64,48,32,55,43,32,100,75,45,30.19,30.12,30.01,10,8,5,18,5,25,0.00,2,,143
2013-3-5,71,60,48,61,54,37,94,74,52,30.16,30.03,29.96,10,8,5,15,7,24,0.00,3,,234
2013-3-6,60,50,41,41,31,27,87,50,27,30.29,30.22,30.16,10,8,5,17,8,24,0.00,0,,336
2013-3-7,64,50,35,43,35,30,100,67,28,30.35,30.28,30.23,10,9,2,10,5,,0.00,0,,354
2013-3-8,71,52,33,50,39,32,100,72,27,30.32,30.25,30.20,10,6,0,10,2,,0.00,0,Snow,11
2013-3-9,71,56,41,59,50,41,100,77,35,30.22,30.16,30.07,7,6,1,14,4,20,0.00,0,,113
2013-3-10,77,68,60,63,60,59,94,78,57,30.07,30.02,29.91,7,7,4,25,13,32,0.00,3,,122
2013-3-11,71,60,48,66,55,43,100,85,71,29.98,29.91,29.86,10,7,1,25,11,34,0.41,4,Rain,352
2013-3-12,64,53,42,45,37,34,93,62,32,30.20,30.09,29.98,10,7,5,16,7,22,0.00,0,,339
2013-3-13,68,52,35,46,32,19,100,54,17,30.36,30.28,30.20,10,7,4,16,4,22,0.00,0,,329
2013-3-14,64,50,37,43,30,23,100,49,21,30.45,30.36,30.30,10,8,5,14,7,17,0.00,0,,351
2013-3-15,68,52,37,54,45,37,100,77,40,30.33,30.24,30.16,10,6,1,13,2,17,0.00,0,Snow,217
2013-3-16,73,58,42,59,52,43,100,77,50,30.15,30.08,30.01,10,7,0,10,3,16,0.00,1,Fog,211
2013-3-17,73,60,48,64,58,48,100,89,61,30.03,29.97,29.92,10,5,0,12,2,,0.00,4,Fog,140
2013-3-18,80,71,62,70,67,61,100,87,69,29.94,29.89,29.81,10,6,0,15,7,21,0.00,7,Fog,148
2013-3-19,78,66,55,70,54,45,100,68,32,30.04,29.98,29.89,10,8,0,14,6,20,0.00,3,Fog,13
2013-3-20,66,52,37,45,35,28,93,45,26,30.10,30.04,29.97,10,8,5,20,8,20,0.00,1,Rain,7
2013-3-21,66,54,41,45,34,27,82,52,23,30.08,30.00,29.92,10,9,7,12,4,,0.00,1,,350
2013-3-22,71,58,46,55,49,43,87,68,52,29.94,29.90,29.86,10,8,5,18,7,26,0.00,7,,96
2013-3-23,77,70,62,70,63,52,100,83,64,29.89,29.76,29.62,10,6,2,14,7,21,0.06,7,Rain,104
2013-3-24,78,64,51,70,56,30,100,69,31,29.94,29.69,29.59,10,7,0,18,10,28,0.00,2,Rain,265
2013-3-25,60,50,41,34,28,19,70,44,20,30.23,30.09,29.95,10,7,4,17,12,26,0.00,1,,323
2013-3-26,55,46,37,32,27,23,70,48,29,30.37,30.30,30.23,10,9,7,14,6,23,0.00,0,,342
2013-3-27,60,46,32,41,31,23,100,63,23,30.45,30.36,30.30,10,10,10,12,4,,0.00,0,,348
2013-3-28,66,49,32,45,37,30,100,70,28,30.37,30.32,30.27,10,7,1,10,2,,0.00,0,,229
2013-3-29,69,52,35,54,44,32,100,75,25,30.36,30.29,30.23,10,6,0,12,2,17,0.00,0,Fog,171
2013-3-30,73,58,44,61,53,45,100,79,50,30.23,30.15,30.07,10,5,0,10,2,17,0.00,2,Fog,180
2013-3-31,77,64,51,68,60,52,100,85,57,30.08,30.00,29.92,10,6,0,10,2,16,0.04,5,Fog-Rain,200